sat.trackr.live / text

‹ back to catalog

TRACERS 1

NORAD 64870 · 2025-154B

PAYLOAD ACTIVE UNKNOWN

§ Identity

Operator
Country
US
Launch date
2025-07-23
Launch site
AFWTR
Launch vehicle
Mass (kg)
RCS (m²)

External: N2YO · Heavens-Above · Gunter

§ Orbital elements

Epoch: 2026-05-25T03:01:24.060288Z

Period
96.42 min
Inclination
97.6700°
Eccentricity
0.0004862
Mean motion
14.93394252 rev/d
Perigee alt
584.0 km
Apogee alt
590.7 km
Semi-major
6,965.5 km
B*
1.4741e-4
RAAN
209.3326°
Arg perigee
350.4765°
Mean anomaly
9.6362°
Rev number
4,555

§ Raw data

TRACERS 11 64870U 25154B   26145.12597292  .00001492  00000+0  14741-3 0  99922 64870  97.6700 209.3326 0004862 350.4765   9.6362 14.93394252 45558

JSON: /api/v1/satellites/64870 · /tle

For live sub-satellite position, see the globe view (requires WebGL).

§ Visibility from observer

Set your observer location to see the next 7 days of passes ≥ 10°. The values pass through the URL so the page stays shareable.

No JS? Fill the form by hand. The geolocation button needs JavaScript.